Вернуться в каталог

STARLINK-35359

АктивенСвязьSSO
NORAD 65670·PAYLOAD·🇺🇸 United States

Запущен Sep 19, 2025 с Vandenberg Space Force Base

Loading…

Ближайшие Пролёты (ближайшие 24 часа)

TLE

СвежийSource: CelesTrak SupGP

Эпоха: Sep 14, 2026, 23:03 UTC

1 65670C 25211U   26257.96090278  .00058767  00000+0  18246-2 0  2570
2 65670  97.2833 298.3250 0000927  90.8857  59.4638 15.33404110    10

Отслеживайте STARLINK-35359 в реальном времени с AllMySat

Download on the App Store